Regional Weather Roundup
Issued by NWS

Home | Current Version | Previous Version | Graphics & Text | Print | Product List | Glossary On
Versions: 1 2 3 4 5 6 7 8 9 10 11 12 13 14 15 16 17 18 19 20 21 22 23 24 25 26 27 28 29 30 31 32 33 34 35 36 37 38 39 40 41 42 43 44 45 46 47 48 49 50
000
ASUS43 KLOT 252004
RWRIL

ILLINOIS REGIONAL WEATHER ROUNDUP
NATIONAL WEATHER SERVICE CHICAGO/ROMEOVILLE IL
300 PM CDT MON SEP 25 2017

NOTE: "FAIR" INDICATES FEW OR NO CLOUDS BELOW 12,000 FEET WITH NO
SIGNIFICANT WEATHER AND/OR OBSTRUCTIONS TO VISIBILITY.

* THESE STATIONS ARE NOT UNDER NWS QUALITY CONTROL. THEY ALSO MAY NOT
  REPORT WEATHER SUCH AS PRECIPITATION OR FOG.

ILZ001-002-007-009-015-016-024-252100-
NORTHWEST ILLINOIS

CITY           SKY/WX    TMP DP  RH WIND       PRES   REMARKS
MOLINE         SUNNY     91  63  39 SW12G18   29.89F HX  92
STERLING*      SUNNY     92  60  34 VRB7      29.91F HX  91
SAVANNA*       PTSUNNY   92  64  39 SW7       29.89F HX  93
$$

ILZ003-004-008-010-011-017-018-252100-
NORTH CENTRAL ILLINOIS

CITY           SKY/WX    TMP DP  RH WIND       PRES   REMARKS
ROCKFORD       MOSUNNY   91  56  30 SW7       29.93F HX  89
FREEPORT*      MOSUNNY   90  58  34 S10       29.94F HX  89
ROCHELLE*      MOSUNNY   91  58  32 S3        29.93F HX  89
DE KALB*       MOSUNNY   88  58  36 SE7       29.95F HX  87
PERU*          SUNNY     90  57  32 W5        29.92F HX  88
$$

ILZ005-006-012>014-019>023-252100-
NORTHEAST ILLINOIS

CITY           SKY/WX    TMP DP  RH WIND       PRES   REMARKS
CHICAGO-OHARE  MOSUNNY   92  55  28 SE12      29.93F HX  90
CHICAGO-MIDWAY MOSUNNY   91  57  31 E12       29.94F HX  89
AURORA         MOSUNNY   91  58  32 SE6       29.94F HX  90
LANSING*       MOSUNNY   89  61  39 S6        29.95F HX  89
JOLIET*        PTSUNNY   91  60  35 E9        29.94F HX  90
WAUKEGAN       MOSUNNY   85  65  51 SE9       29.95F HX  86
DUPAGE AIRPORT SUNNY     92  57  30 SW10      29.93F HX  90
KANKAKEE*      SUNNY     89  58  35 SE9       29.95F HX  88
WHEELING       SUNNY     91  60  35 E10       29.95F HX  90
MORRIS*        MOSUNNY   92  56  30 SE8       29.93F HX  90
ROMEOVILLE*    PTSUNNY   91  57  32 E9        29.94F HX  90
NORTHERLY ISL    N/A     79  66  64 E10         N/A  HX  81
$$

LMZ740>746-252100-
SOUTHERN LAKE MICHIGAN

STATION/POSITION SKY/WX   TEMP    WIND        PRES    VSBY  WAVE
                          AIR SEA DIR/SP/G                  HT/PER
                          (F)     (DEG/KT/KT) (MB)    (MI)  (FT/S)
SOUTHERN BUOY              73 71  140/  8/ 10 1015.3          1/ 3
WILMETTE HARBOR            76 72  120/ 10/ 12   N/A           1/ 2
HARRISON CRIB              79     110/ 16/ 17   N/A
BURNHAM HARBOR             80                   N/A
CALUMET HARBOR             82      60/ 10/ 13 1014.0F
BURNS HARBOR               89     150/  7/ 12 1014.9F
MICHIGAN CITY              85     190/  5/  7   N/A
MICHIGAN CITY 6N           79 75   70/  4/  6   N/A           0
ST. JOSEPH                 81 74   20/  2/  2 1014.6F         0
$$

ILZ025>027-034>036-040-047-049-050-058-095>099-252100-
WEST-CENTRAL ILLINOIS

CITY           SKY/WX    TMP DP  RH WIND       PRES   REMARKS
QUINCY         MOSUNNY   89  63  41 SW6       29.90F HX  90
GALESBURG*     PTSUNNY   90  63  39 SE10      29.92F HX  90
MACOMB*        MOSUNNY   89  60  36 S9        29.94F HX  89
JACKSONVILLE*  SUNNY     89  60  37 S6        29.92F HX  88
PITTSFIELD*    MOSUNNY   89  63  42 SE5       29.93F HX  90
$$

ILZ028>032-037-038-041>044-048-051>054-059>061-252100-
CENTRAL ILLINOIS

CITY           SKY/WX    TMP DP  RH WIND       PRES   REMARKS
PONTIAC        MOSUNNY   92  59  32 S12       29.94F HX  92
BLOOMINGTON    MOSUNNY   89  60  37 SE10      29.95F HX  89
DECATUR        SUNNY     90  60  36 SE6       29.94F HX  89
PEORIA         SUNNY     90  59  35 SE8       29.92F HX  89
LACON*         SUNNY     91  59  34 SW9G16    29.91F HX  91
LINCOLN*       SUNNY     92  60  33 SE6       29.92F HX  91
SPRINGFIELD    SUNNY     93  61  34 SE10      29.92F HX  93
TAYLORVILLE    MOSUNNY   91  61  36 S9        29.94F HX  91
$$

ILZ033-039-045-046-055>057-062-063-252100-
EAST-CENTRAL ILLINOIS

CITY           SKY/WX    TMP DP  RH WIND       PRES   REMARKS
CHAMPAIGN      PTSUNNY   91  56  30 SE8       29.95F HX  89
RANTOUL*       MOSUNNY   91  60  35 E5        29.95F HX  90
MATTOON        MOSUNNY   90  62  39 SW7       29.94F HX  90
$$

ILZ079-100>102-252100-
SOUTHWEST ILLINOIS

CITY           SKY/WX    TMP DP  RH WIND       PRES   REMARKS
BELLEVILLE     SUNNY     90  62  39 S9        29.92F HX  90
CAHOKIA*       MOSUNNY   94  59  31 SE8       29.91F HX  93
SPARTA*        MOSUNNY   89  62  39 SE9       29.95F HX  90
$$

ILZ064>066-069>071-074>076-080>082-084>086-088>090-092>094-252100-
SOUTH-CENTRAL ILLINOIS

CITY           SKY/WX    TMP DP  RH WIND       PRES   REMARKS
CARBONDALE     SUNNY     88  66  48 S10       29.94F HX  90
CAIRO*         SUNNY     87  65  46 S3        29.94F HX  89
EFFINGHAM*     MOSUNNY   91  62  36 S9        29.96F HX  92
MARION         MOSUNNY   90  63  40 N5        29.95F HX  90
MT. VERNON       N/A     91  64  40 SW6       29.94F HX  92
CENTRALIA*     MOSUNNY   90  65  43 S6        29.94F HX  92
SALEM*         PTSUNNY   93  61  33 S7        29.94F HX  93
METROPOLIS*    MOSUNNY   90  66  44 S5        29.95F HX  92
$$

ILZ067-068-072-073-078-083-087-091-252100-
SOUTHEAST ILLINOIS

CITY           SKY/WX    TMP DP  RH WIND       PRES   REMARKS
LAWRENCEVILLE  SUNNY     90  61  37 CALM      29.95F HX  90
FLORA*         SUNNY     92  62  36 S3        29.95F HX  92
FAIRFIELD*     SUNNY     89  61  39 CALM      29.93F HX  89
HARRISBURG*    PTSUNNY   91  65  43 S3        29.96F HX  93
ROBINSON*      MOSUNNY   89  63  41 SW5       29.96F HX  90
CARMI*         CLOUDY    89  63  41 SW3       29.95F HX  89
$$

ABBREVIATIONS USED IN REMARKS
   TC - TEMPERATURE IN CELSIUS
  WCI - WIND CHILL INDEX
   HX - HEAT INDEX
  VSB - VISIBILITY
$$





USA.gov is the U.S. government's official web portal to all federal, state and local government web resources and services.